Location: Buire
(49.9652°N, 2.5915°E)
Time: 13:52:24
(UTC+00:00)

Daily predictions for brighter satellites

Satellite Brightness Start Highest point End
(mag) Time Altitude Azimuth Time Altitude Azimuth Time Altitude Azimuth
BREEZE-M DEB (TANK) 3.6 20:40:46 10° SSW 20:42:53 23° SE 20:46:25 10° E
Cosmos 2285 Rocket 4.1 20:38:48 10° SSW 20:45:14 79° ESE 20:51:41 10° NNE
Okean 2 3.7 20:42:48 10° SSW 20:46:53 70° W 20:50:58 10° N
Meteor 2-20 4.5 20:43:49 10° S 20:49:56 83° E 20:56:03 10° NNE
Cosmos 1908 3.9 20:46:45 10° N 20:50:29 42° ENE 20:54:10 10° SSE
Cosmos 292 Rocket 3.8 20:46:00 10° SSW 20:50:49 73° ESE 20:55:39 10° NNE
Cosmos 2263 Rocket 3.5 20:49:07 10° NW 20:54:17 37° WSW 20:59:26 10° S
Lacrosse 5 rocket 2.8 20:52:30 10° SSE 20:54:25 14° SE 20:56:19 10° E
SPOT 5 3.2 20:53:35 10° SSE 20:58:38 58° ENE 21:03:28 10° N
Cosmos 1707 3.0 20:56:42 10° SSW 21:00:33 72° W 21:04:28 10° N
Cosmos 1452 Rocket 3.5 20:57:17 10° SSW 21:02:31 69° ESE 21:07:48 10° NNE
Cosmos 1459 Rocket 4.0 21:02:18 10° N 21:08:22 70° ENE 21:14:24 10° SSE
In-Cosmos 22 4.1 21:03:06 10° S 21:08:23 83° E 21:13:42 10° NNE
Resurs 01 Rocket 3.3 21:06:29 10° SSW 21:10:23 30° W 21:14:19 10° NNW
Cosmos 1850 Rocket 4.2 21:05:15 10° NNW 21:10:35 78° WSW 21:15:51 10° SSE
Terra 2.2 21:06:08 10° SE 21:10:43 52° ENE 21:15:22 10° N
Cosmos 1953 2.3 21:07:00 10° N 21:11:06 80° E 21:15:09 10° SSE
SPOT 1/Viking Rocket 4.1 21:06:19 10° S 21:11:23 58° W 21:16:29 10° NNW
Lacrosse 5 3.0 21:07:00 10° WNW 21:11:30 33° SW 21:16:00 10° SSE
Cosmos 2333 Rocket 3.3 21:09:11 10° SSE 21:13:48 26° ESE 21:18:25 10° NE
Cosmos 1025 Rocket 3.5 21:10:12 10° SSE 21:14:21 43° E 21:18:30 10° NNE
CARTOSAT-1 3.7 21:11:20 10° S 21:15:38 75° WSW 21:19:58 10° NNW
NOSS 3-2 (A) 4.4 21:12:27 10° WSW 21:18:09 54° NW 21:24:48 10° NE
NOSS 3-2 (C) 3.7 21:12:45 10° SW 21:18:29 75° NW 21:25:13 10° NE
Geosat 4.3 21:15:05 10° SSE 21:20:04 64° WSW 21:25:05 10° NW
SL-14 R/B 4.3 21:17:35 12° SSE 21:20:45 31° E 21:24:21 10° NNE
FALCON 9 DEB 3.8 21:18:43 10° SSW 21:21:50 33° SE 21:24:56 10° E
Spot 2 Rocket 3.9 21:18:24 10° S 21:23:24 63° WSW 21:28:28 10° NNW
Cosmos 2061 Rocket 4.3 21:17:30 10° N 21:23:55 61° ENE 21:29:43 13° SSE
Cosmos 1975 Rocket 3.1 21:19:50 10° S 21:24:11 84° W 21:28:37 10° N
Cosmos 1844 3.7 21:19:44 10° NNW 21:25:20 83° ENE 21:30:18 13° SSE
ATLAS 3B R/B 3.3 21:19:44 10° S 21:25:23 32° ESE 21:31:12 10° NE
Meteor 2-11 Rocket 4.5 21:21:23 10° N 21:27:33 86° E 21:33:25 11° S
Cosmos 1461 3.0 21:23:24 10° NW 21:27:39 68° SW 21:30:58 15° SSE
Cosmos 1331 Rocket 4.2 21:23:27 10° S 21:28:33 54° ESE 21:33:42 10° NNE
Cosmos 2219 Rocket 3.2 21:24:39 12° SSE 21:28:58 28° ESE 21:33:44 10° NE
ERS-1 Rocket 3.1 21:24:38 11° SSE 21:29:35 79° WSW 21:34:40 10° NNW
Cosmos 1626 2.2 21:27:13 11° S 21:30:37 59° E 21:34:16 10° NNE
Aureole 1 Rocket 4.1 21:28:07 10° NNW 21:33:43 79° WSW 21:40:17 13° SSE
SL-8 R/B 3.9 21:33:17 10° W 21:37:57 52° SSW 21:41:58 14° SE
BREEZE-M DEB (TANK) 3.3 21:35:05 10° WNW 21:38:04 27° SW 21:39:07 18° S
Cosmos 2123 Rocket 4.1 21:34:03 10° S 21:40:07 62° E 21:46:22 10° NNE
BREEZE-M DEB (TANK) 2.6 21:38:01 10° SSW 21:40:26 33° SE 21:45:04 10° ENE
KORONAS-FOTON 4.3 21:37:36 10° SSW 21:41:21 58° WNW 21:45:07 10° N
ATLAS CENTAUR R/B 1.6 21:38:28 10° NW 21:42:45 73° NE 21:46:25 15° SE
Cosmos 2237 Rocket 4.1 21:42:43 10° ESE 21:44:27 11° E 21:46:12 10° ENE
USA 215 3.8 21:38:48 10° ENE 21:44:44 36° SE 21:50:39 10° SSW
Cosmos 1867 4.4 21:41:35 10° NNW 21:46:55 48° NE 21:52:12 10° ESE
ARIANE 5 R/B 3.8 21:43:56 10° SSW 21:48:04 39° W 21:52:18 10° NNW
Cosmos 2233 Rocket 4.3 21:42:07 10° N 21:48:10 56° ENE 21:53:01 16° SSE
SL-16 R/B 3.2 21:43:34 10° SW 21:49:03 50° NW 21:54:36 10° NNE
Cosmos 2360 Rocket 2.2 21:44:45 10° SSW 21:50:25 90° ESE 21:56:06 10° NNE
Cosmos 2322 Rocket 2.9 21:46:12 10° SW 21:51:49 58° WNW 21:57:29 10° NNE
Centaur D AC-29 4.2 21:34:35 10° WSW 21:54:06 20° SW 21:59:43 12° S
Cosmos 1455 4.1 21:57:24 10° NNE 22:00:18 20° ENE 22:02:38 12° ESE
Cosmos 389 Rocket 3.6 21:58:33 10° N 22:01:39 30° ENE 22:03:30 18° ESE
Cosmos 1674 4.2 21:58:40 10° SW 22:02:05 34° WNW 22:05:30 10° N
Cosmos 1544 Rocket 4.4 22:00:29 10° NNW 22:04:47 47° W 22:08:31 13° SSW
COSMOS 2428 3.2 22:01:02 16° S 22:05:17 43° ESE 22:10:41 10° NE
CENTAUR R/B 3.9 21:59:51 10° WSW 22:05:55 46° NNW 22:13:09 10° NE
H-2A R/B 3.4 22:01:50 10° NNE 22:05:56 90° NW 22:09:24 14° SSW
Cosmos 1300 2.7 22:04:20 10° NNW 22:08:09 79° W 22:10:36 21° S
Cosmos 2322 3.7 22:02:41 10° SSW 22:08:11 63° ESE 22:13:47 10° NE
Cosmos 1606 Rocket 4.3 22:05:25 10° N 22:09:43 43° ENE 22:12:29 20° SE
Cosmos 2016 Rocket 4.3 22:04:47 10° NNW 22:10:48 63° W 22:16:04 14° S
Cosmos 2278 Rocket 2.9 22:08:18 10° NNW 22:13:49 49° NE 22:18:27 14° SE
SJ 16-02 4.2 22:14:12 10° NE 22:14:40 10° NE 22:15:07 10° NE
ALOS 2 4.0 22:11:48 14° ESE 22:14:51 28° ENE 22:18:36 10° N
Cosmos 1486 Rocket 4.2 22:11:58 10° NNW 22:17:12 66° ENE 22:20:48 20° SE
USA 267 3.4 22:13:32 10° ESE 22:20:04 79° NNE 22:26:38 10° WNW
Cosmos 1346 Rocket 3.3 22:19:17 24° SSE 22:21:16 43° E 22:25:06 10° NNE
Cosmos 1725 Rocket 4.4 22:16:08 10° NNW 22:22:13 60° W 22:27:16 15° S
Cosmos 1844 Rocket 3.9 22:20:13 10° NW 22:25:11 32° WSW 22:29:19 14° SSW
Meteor 2-5 Rocket 3.7 22:24:44 15° SSW 22:29:28 82° WNW 22:35:07 10° N
Cosmos 1340 3.5 22:26:36 12° SSW 22:29:51 47° WNW 22:33:31 10° N
Cosmos 968 Rocket 3.5 22:25:09 10° NNW 22:30:17 78° WSW 22:33:31 23° SSE
Lacrosse 5 rocket 0.8 22:29:20 10° SW 22:32:59 81° SE 22:36:34 10° ENE
Cosmos 405 4.4 22:30:47 10° NNW 22:33:51 30° W 22:35:50 17° SW
Cosmos 1992 Rocket 4.4 22:32:39 23° SSE 22:35:35 45° ESE 22:40:34 10° NE
Cosmos 1184 Rocket 4.3 22:38:30 20° ESE 22:39:12 22° E 22:41:47 10° NE
Cosmos 1536 Rocket 4.3 22:35:24 13° SSW 22:39:16 49° WNW 22:43:38 10° N
GEOS 3 Rocket 3.8 22:36:02 22° SSE 22:39:30 64° SW 22:44:50 10° NW
Cosmos 1607 4.3 22:35:59 10° NW 22:42:25 67° NE 22:47:53 14° SE
DNEPR-1 R/B 4.5 22:44:54 10° NW 22:48:44 33° WSW 22:50:34 23° SSW
Terra 3.7 22:45:03 10° SW 22:48:46 22° W 22:52:31 10° NW
Cosmos 1980 4.3 22:50:46 24° SSE 22:53:40 41° ESE 22:58:59 10° NE
FALCON 9 DEB 3.1 22:56:15 43° SSE 22:56:22 43° SSE 22:59:22 10° ENE
Cosmos 2333 Rocket 2.6 22:51:56 10° SW 22:57:39 64° WNW 23:03:22 10° NNE
Cosmos 1943 Rocket 3.9 22:53:13 10° NNW 22:57:53 27° NE 23:02:32 10° ESE
FALCON 9 DEB 3.4 22:55:09 10° W 22:58:34 69° NNW 23:01:58 10° ENE
Cosmos 2228 3.5 22:54:42 10° NNW 22:59:00 53° W 23:01:23 24° SSW
BREEZE-M DEB (TANK) 3.3 22:56:48 10° SW 23:04:50 40° SSE 23:07:49 10° E
Cosmos 2034 Rocket 4.3 22:59:15 10° N 23:05:23 57° ENE 23:09:25 22° SSE
Okean 1-7 Rocket 4.1 23:06:13 27° SSE 23:08:13 46° E 23:12:29 10° NNE
Cosmos 2219 Rocket 2.8 23:07:00 10° SW 23:12:35 57° NW 23:18:13 10° NNE
Uosat 12 SS-18 rocket 4.2 23:10:43 15° SW 23:14:23 86° NW 23:19:36 10° NE
SAR-Lupe-2 4.3 23:11:08 10° NNE 23:14:32 38° E 23:15:32 31° SE
ATLAS 3B R/B 2.9 23:09:04 10° SW 23:15:37 69° NW 23:22:28 10° NE
Meteor 2-10 Rocket 4.4 23:11:14 10° NNW 23:15:58 39° W 23:18:55 20° SSW
Cosmos 1503 Rocket 4.1 23:10:59 10° NNW 23:16:22 73° WSW 23:19:20 27° S
FALCON 9 DEB 2.7 23:16:35 20° WSW 23:18:32 78° SSE 23:21:39 10° ENE
FALCON 9 DEB 2.7 23:19:51 34° SW 23:20:59 68° SSE 23:24:06 10° ENE
ATLAS CENTAUR R/B 3.3 23:18:10 10° WNW 23:21:16 19° WSW 23:22:33 17° SW
SL-16 R/B 3.5 23:20:20 19° SE 23:22:41 25° ESE 23:27:11 10° NE
Cosmos 2058 Rocket 3.1 23:19:01 10° NNW 23:23:29 75° W 23:25:34 31° S
Iridium 2 4.3 23:22:59 26° SW 23:24:46 47° W 23:28:26 10° N
Cosmos 2237 Rocket 2.2 23:24:08 25° S 23:27:26 68° ESE 23:33:02 10° NNE
FALCON 9 DEB 2.7 23:25:34 19° WSW 23:27:38 85° SSE 23:30:46 10° ENE
USA 215 3.3 23:21:39 10° ENE 23:28:14 88° NW 23:34:47 10° WSW
ATLAS CENTAUR R/B 3.8 23:25:37 25° S 23:28:50 48° ESE 23:41:17 10° NE
Cosmos 1867 4.2 23:25:22 10° NW 23:30:28 40° WSW 23:32:53 26° SSW
Tsikada Rocket 4.4 23:28:42 23° SSE 23:32:21 51° E 23:38:17 10° NNE
Thor Agena Rocket 4.0 23:28:43 10° NNE 23:33:50 49° E 23:36:27 27° SSE
GP-B 3.8 23:30:39 10° NNE 23:34:55 43° E 23:37:02 25° SE
Cosmos 2360 Rocket 4.5 23:30:47 10° W 23:35:12 23° NW 23:39:37 10° NNE
Cosmos 1455 3.1 23:32:28 10° NNW 23:36:03 38° W 23:37:30 27° SW
Cosmos 389 Rocket 4.4 23:33:36 10° NW 23:36:05 19° W 23:37:17 16° WSW
Cosmos 2369 Rocket 4.0 23:31:34 10° NNW 23:36:33 29° NE 23:41:30 10° ESE
Meteor 1-21 Rocket 4.2 23:39:34 26° SSW 23:42:56 85° WNW 23:48:42 10° NNE
Meteor 1-4 Rocket 2.4 23:40:13 10° N 23:43:44 75° ENE 23:44:52 40° SSE
COSMOS 2428 3.9 23:44:13 10° WSW 23:49:37 41° NW 23:55:03 10° NNE
NOSS 0 Rocket 4.1 23:45:23 16° SW 23:50:28 73° WNW 23:56:45 10° NNE
ALOS 2 3.5 23:49:12 25° SW 23:51:04 38° W 23:55:11 10° NNW
SJ 16-02 1.8 23:49:58 10° NNW 23:54:17 55° ENE 23:57:01 21° SE
